Location: Little Baddow
(51.7333°N, 0.5667°E)
Time: 11:11:23
(UTC+00:00)

Cosmos 1269 Rocket - Pass Details

Date: 08 November 2025
Orbit: 768 x 775 km, 74.1° (Epoch: 10 December)

Event Time Altitude Azimuth Distance (km) Brightness Sun altitude
Exits shadow 05:09:28 30° 294° (WNW) 1,361 4.8 -17.9°
Maximum altitude 05:11:05 38° 256° (WSW) 1,180 4.5 -17.7°
Drops below altitude 10° 05:15:54 10° 190° (S) 2,318 6.4 -16.9°
Sets 05:18:25 0° 182° (S) 3,241 7.3 -16.5°
